AMOS-3

Last updated on Thu Nov 21 2024 00:02:41 GMT+0000 (Coordinated Universal Time)

1 32794U 08022A 24325.26577118 -.00000034 00000+0 00000+0 0 9996 2 32794 0.0089 309.4233 0002959 284.2470 277.6648 1.00270856 76585
UTC large
Height (km)
Speed (km/s)
/
Latitude / Longitude
Inclination (degrees)
Orbital Period (minutes)
Azimuth
Elevation
Range (km)
Doppler Factor

Next 0 passes for location: London (51.5072 / 0.1276)

Sorry there are no passes over London.